Flag for Israel Weather past 2 weeks in Holon, Israel

Now
88 °F

Scattered clouds.


Feels Like: 100 °F
Forecast: 77 / 89 °F
Wind: 10 mph from Northwest

Location: Dov Airport

Current Time: Aug 30, 2014 at 5:49:31 PM

Latest Report: Aug 30, 2014 at 4:50 PM


Visibility: N/A

Pressure: 29.74 "Hg

Humidity: 70%

Dew point: 77 °F

Location of HolonLocation

Historic Weather in Holon — Graph

°F

Holon temperature yesterday

Maximum temperature yesterday: 88 °F (at 10:50 AM)
Minimum temperature yesterday: 77 °F (at 4:50 AM)
Average temperature yesterday: 84 °F

Past Weeks' High & Low Weather Summary

 TemperatureHumidityPressure
High90 °F (Aug 18, 11:50 AM)89% (Aug 24, 4:50 AM)29.92 "Hg (Aug 24, 4:50 AM)
Low77 °F (Aug 17, 4:50 AM)55% (Aug 21, 8:50 AM)29.59 "Hg (Aug 17, 3:50 PM)
Average84 °F70%29.75 "Hg
* Reported Aug 15 5:00 PM — Aug 30 4:50 PM, Holon, Weather by CustomWeather, © 2014

Note: Actual official high and low records may vary slightly from our data, if they occured in-between our weather recording intervals... More about our weather records

Advertising

Holon weather history for previous 24 hours

 ConditionsComfort  
Time TempWeatherWind HumidityBarometerVisibility
4:50 PM
Aug 30
88 °FScattered clouds.10 mph70%29.74 "HgN/A
3:50 PM88 °FPassing clouds.12 mph66%29.74 "HgN/A
2:50 PM88 °FPassing clouds.12 mph66%29.74 "HgN/A
1:50 PM88 °FSunny.13 mph66%29.77 "Hg10 mi
12:50 PM86 °FPassing clouds.10 mph70%29.77 "HgN/A
11:50 AM86 °FPassing clouds.8 mph66%29.80 "HgN/A
10:50 AM86 °FScattered clouds.7 mph70%29.80 "HgN/A
9:50 AM86 °FScattered clouds.6 mph66%29.80 "HgN/A
8:50 AM86 °FPassing clouds.2 mph66%29.80 "HgN/A
7:50 AM82 °FSunny.3 mph74%29.77 "Hg10 mi
6:50 AM79 °FPassing clouds.3 mph79%29.77 "HgN/A
5:50 AM79 °FPassing clouds.3 mph79%29.77 "HgN/A
5:00 AM79 °FClear.3 mph79%29.77 "Hg10 mi
9:50 PM
Aug 29
82 °FPassing clouds.3 mph74%29.77 "HgN/A
8:50 PM82 °FPassing clouds.6 mph74%29.77 "HgN/A
7:50 PM82 °FScattered clouds.7 mph74%29.77 "HgN/A
6:50 PM84 °FScattered clouds.8 mph70%29.77 "HgN/A
5:50 PM86 °FScattered clouds.12 mph66%29.74 "HgN/A
Weather by CustomWeather, © 2014

See weather overviewHow to use our weather pages